Theta_e
311 318 322 322 321 320 323 323 323 323 322 321 321 322 322 322 322 321 321 321 320 320 320 325 333 340 354 356 355 356 356 355 354 353 353 353 351 351 350 347 349 348 347 346
311 313 317 319 321 321 322 324 325 324 323 321 322 322 322 323 322 322 321 322 321 321 321 324 331 343 349 356 354 356 356 356 355 352 352 352 352 350 348 348 347 347 347 347
313 311 313 317 321 322 322 323 324 324 322 323 322 323 323 323 322 322 321 321 321 321 322 324 337 347 350 353 354 353 354 355 353 351 351 353 351 349 350 349 345 346 349 348
315 313 314 314 317 320 323 322 323 323 323 322 322 324 324 324 323 323 322 322 322 322 322 328 337 348 352 353 352 352 353 354 353 352 352 350 350 348 348 347 347 348 346 345
316 315 315 315 315 318 321 321 322 324 324 323 323 323 326 324 324 323 323 322 322 322 322 326 330 337 346 353 352 351 352 350 353 352 350 350 348 349 348 348 344 345 339 335
312 314 314 316 315 317 319 321 322 323 324 324 325 323 325 326 325 324 323 322 322 322 322 322 324 331 340 346 352 350 349 350 349 349 350 349 349 347 346 346 343 341 340 335
311 311 315 316 317 316 318 322 323 323 323 325 325 324 326 326 325 324 324 322 321 322 322 323 328 338 342 343 345 348 347 346 346 347 349 348 346 346 344 341 340 337 334 331
315 311 314 316 317 317 320 323 325 325 325 324 324 324 324 328 327 324 322 323 325 326 325 324 332 336 339 342 343 345 346 344 343 343 344 344 340 339 336 334 332 330 328 325
318 312 314 316 319 318 319 322 324 322 322 323 325 328 333 331 331 332 331 330 329 328 330 335 336 336 339 340 340 341 340 339 338 337 335 334 332 331 328 326 326 325 324 321
319 314 313 317 318 320 321 322 324 323 324 324 325 329 331 332 333 332 331 329 331 332 332 333 335 337 337 337 336 335 335 334 334 332 330 328 327 326 325 323 321 319 316 314
318 320 316 315 317 321 320 321 323 323 323 326 326 328 329 331 331 330 328 327 328 331 331 332 333 333 333 333 333 332 331 329 327 326 325 323 322 321 319 318 315 313 313 312
316 321 317 317 319 318 318 321 323 324 326 325 326 337 329 331 330 328 328 329 329 329 330 330 330 330 329 328 327 326 325 324 323 322 321 320 319 318 318 316 313 311 310 311
317 321 323 321 319 319 321 321 321 325 327 327 328 339 332 329 328 327 327 327 328 327 327 326 326 326 325 324 323 322 321 320 320 320 319 319 318 317 313 310 309 309 310 314
316 320 322 324 321 322 323 321 322 324 327 325 329 334 330 327 326 325 324 323 323 323 323 323 323 322 321 320 319 318 318 317 317 317 317 316 314 312 311 310 310 311 313 314
315 323 319 321 320 319 320 323 322 324 324 327 334 332 328 324 323 322 321 321 321 321 321 321 320 319 318 317 316 315 315 315 315 314 314 313 313 313 313 312 313 313 314 315
317 326 321 319 321 324 322 322 321 322 324 325 330 332 325 321 320 320 320 321 321 320 320 319 318 316 315 314 314 313 312 312 312 311 311 311 311 312 312 312 313 314 314 314
320 324 322 325 325 321 325 322 322 323 323 325 332 326 322 321 320 320 320 320 320 319 318 317 315 314 313 312 312 311 310 310 310 310 310 310 310 311 311 312 312 313 313 312
318 323 325 326 326 328 322 323 322 323 330 329 324 322 321 320 320 320 321 319 318 317 315 313 312 311 311 310 310 309 309 309 309 309 309 309 309 310 310 311 311 312 311 311
317 327 328 327 326 325 324 323 323 324 329 324 322 319 318 318 318 317 317 317 315 314 312 311 310 309 309 308 308 309 308 309 308 308 308 308 308 308 309 309 309 309 310 311
325 326 327 326 330 331 320 322 322 324 329 321 319 318 317 317 320 315 313 311 309 307 306 307 308 307 307 307 308 308 308 308 307 307 306 307 307 307 307 308 308 309 310 311
322 320 329 329 329 319 312 315 322 328 330 321 319 317 318 323 315 310 309 307 305 304 303 303 304 304 304 304 306 306 306 305 305 306 306 306 306 306 307 307 308 308 310 310
315 321 320 328 325 326 308 322 326 325 325 322 319 319 313 310 308 307 305 304 304 304 303 302 301 302 302 303 305 305 304 304 304 305 305 305 305 306 306 307 307 308 308 308
316 313 314 308 308 305 307 316 321 322 319 318 318 312 311 310 308 306 304 303 302 302 301 302 302 301 301 301 302 302 301 302 302 302 302 302 303 304 305 306 306 307 306 307
306 305 309 309 301 302 305 308 313 314 314 314 314 312 309 307 305 303 301 299 299 300 300 301 301 300 299 299 299 298 298 300 301 301 301 300 301 303 304 304 305 304 302 303
301 303 305 302 301 302 300 302 303 303 306 308 307 307 306 304 303 302 301 301 301 301 299 298 298 298 298 298 298 297 297 298 298 299 299 298 299 301 302 302 303 301 302 303
298 302 307 302 298 298 297 299 299 299 299 299 300 300 300 301 301 301 301 300 299 298 297 296 296 297 297 298 297 296 295 297 296 297 296 296 297 300 301 300 301 300 300 302
Wind_Speed
31 18 26 38 36 26 24 24 26 20 24 20 25 22 23 14 19 21 25 26 25 26 25 24 20 21 25 25 22 23 22 22 22 24 21 17 17 14 13 12 11 15 13 10
25 27 30 29 32 32 31 27 25 24 19 20 21 24 21 19 14 20 22 22 25 24 24 24 22 21 25 24 25 24 22 21 19 19 16 15 15 13 14 14 14 11 10 12
24 32 30 29 29 32 29 30 22 21 16 18 20 23 25 23 20 17 16 25 24 24 27 26 19 21 25 24 27 26 24 21 20 16 19 15 14 13 12 9 11 11 10 11
23 29 25 33 30 27 27 29 25 18 20 15 23 15 23 22 21 18 20 20 24 25 28 24 22 21 23 23 25 23 23 22 21 21 17 17 12 12 11 12 10 9 11 6
18 25 29 31 34 30 24 24 25 19 22 17 20 14 22 22 24 23 20 23 22 25 29 28 27 21 19 22 23 22 23 21 26 19 14 13 12 12 11 10 9 12 5 5
25 23 25 23 31 30 25 22 24 17 16 14 21 19 19 23 26 22 21 26 23 24 25 22 20 24 21 20 20 19 20 18 18 16 14 13 15 12 10 9 7 6 4 2
24 26 23 21 23 31 24 20 16 15 13 17 20 16 17 23 23 21 23 27 28 22 19 15 19 19 21 21 20 19 19 17 17 16 16 17 17 17 15 10 8 9 6 2
19 19 24 17 20 20 27 24 17 28 22 20 24 13 13 14 11 22 30 24 19 19 22 23 23 22 22 21 20 19 19 19 18 19 17 16 14 14 13 14 11 8 5 1
15 20 25 23 14 26 33 26 29 20 20 16 17 14 14 11 13 14 20 22 15 17 20 19 19 21 21 21 20 22 22 21 20 20 20 19 18 17 14 12 8 5 4 3
7 15 27 23 22 21 27 27 26 19 21 21 21 22 13 15 16 15 15 17 14 16 22 24 24 24 23 23 25 23 22 22 21 20 18 17 15 13 10 7 4 2 1 3
6 7 19 23 19 24 16 20 23 23 14 19 15 18 14 23 21 18 16 21 23 22 22 24 25 25 25 25 24 24 23 22 21 19 17 16 14 12 9 7 5 4 5 6
5 6 15 28 23 27 24 28 31 13 24 15 12 5 4 26 20 22 24 29 29 28 29 29 29 28 27 26 25 24 22 21 19 18 16 15 13 10 8 6 5 5 6 8
6 5 12 21 5 10 18 27 26 23 15 20 11 8 16 22 18 22 25 29 29 30 30 29 29 28 27 25 24 23 21 20 17 16 14 12 11 7 5 5 5 6 7 8
8 5 18 17 23 24 27 22 22 22 15 9 9 18 16 19 17 20 26 30 30 30 30 29 29 28 26 24 23 21 20 17 15 13 11 10 8 6 4 4 5 6 7 7
4 8 13 5 12 22 23 27 28 25 14 15 25 21 21 22 18 25 30 32 32 31 30 28 27 26 24 22 20 19 17 15 13 11 9 8 7 5 5 5 6 6 7 7
7 5 15 8 13 23 22 25 25 21 15 8 19 21 22 27 27 26 28 31 32 30 29 27 26 24 22 19 17 16 14 12 10 9 8 6 5 5 5 7 6 6 6 7
5 6 4 8 21 27 25 23 22 11 9 7 12 17 24 21 19 25 29 30 31 30 28 25 23 20 18 16 14 13 11 9 9 7 7 6 6 5 6 6 6 5 7 7
6 2 5 5 16 8 15 19 17 5 13 8 26 20 23 25 28 28 27 30 29 27 25 22 19 17 15 13 12 11 9 9 7 8 7 7 6 6 6 5 5 4 4 7
15 5 6 6 4 9 12 13 15 3 15 22 28 22 27 32 31 24 25 25 26 24 22 20 17 15 14 12 11 10 9 7 7 8 7 7 6 5 5 5 4 3 3 6
4 6 5 5 4 4 5 16 15 7 11 21 28 24 26 34 17 12 24 23 21 19 17 17 15 14 13 12 10 9 8 7 8 8 8 8 7 5 5 4 4 3 3 6
6 6 4 10 6 5 11 19 13 3 8 28 32 35 31 11 18 30 24 21 18 16 15 14 14 13 11 11 10 10 8 8 7 7 7 7 6 9 6 4 4 2 5 5
7 7 6 4 6 6 25 6 4 2 30 29 29 26 25 35 36 30 24 21 18 16 15 13 13 12 11 11 10 9 9 8 7 7 6 6 5 4 2 2 2 4 4 5
5 7 3 7 4 9 18 10 12 18 27 27 27 28 32 33 31 28 24 19 16 15 14 12 12 12 10 10 10 7 8 8 7 7 6 4 3 4 2 4 2 3 4 4
11 19 4 2 8 12 23 28 28 26 27 27 26 28 30 32 27 25 20 17 17 15 15 12 11 11 11 10 9 8 7 8 7 7 7 6 5 6 1 4 4 2 4 4
7 11 6 4 4 10 23 21 22 28 30 31 30 27 28 28 24 23 20 18 16 14 12 11 12 12 11 9 8 8 9 8 7 7 7 6 4 1 6 5 4 4 4 7
12 5 3 3 9 14 10 16 19 28 30 30 35 30 24 25 25 22 21 17 15 14 12 13 12 11 9 8 8 9 9 8 8 6 5 6 5 1 4 4 7 5 8 10
Wind_Direction
215 215 209 213 219 226 226 222 219 211 223 197 222 224 219 206 228 201 210 211 211 210 204 198 197 196 187 181 186 184 184 191 195 197 197 200 205 197 210 213 212 227 240 230
210 222 225 219 217 227 232 238 214 218 197 186 213 226 209 210 215 199 203 197 200 200 199 194 186 192 188 181 188 183 185 184 184 194 187 197 200 196 197 209 214 212 210 218
208 216 225 232 223 215 218 227 232 196 178 206 223 221 224 215 195 201 210 201 200 200 197 190 180 190 188 189 191 188 187 186 178 189 181 173 175 180 185 205 213 199 201 225
229 206 214 227 231 219 211 218 231 184 183 204 221 217 212 205 212 214 204 207 192 194 194 178 185 182 184 187 192 191 184 185 170 182 176 174 177 187 186 193 193 191 220 226
220 228 213 199 218 221 220 205 221 201 205 201 202 242 196 202 208 203 203 202 192 186 186 180 181 178 173 175 179 179 182 178 174 163 171 173 172 190 159 161 174 191 221 216
247 240 228 228 198 225 215 207 206 214 213 206 208 212 225 187 202 187 192 197 189 180 184 185 181 170 164 167 165 164 166 164 165 163 172 164 176 160 166 162 148 155 152 261
232 233 246 219 193 204 211 200 189 194 195 207 188 202 248 176 187 179 186 188 186 164 172 156 155 157 160 157 156 159 164 156 154 164 157 164 166 168 178 137 152 137 127 100
215 217 222 203 207 193 197 180 195 179 195 197 186 209 204 66 96 195 180 152 146 168 169 175 156 152 151 148 149 149 143 136 139 150 153 150 134 132 130 138 132 124 117 224
214 212 184 242 186 213 186 201 208 198 201 196 183 147 78 124 105 89 103 122 160 166 133 132 146 146 143 140 137 137 133 127 121 121 122 124 130 139 132 131 118 147 143 13
296 230 182 192 178 218 190 206 202 226 196 220 188 163 156 162 150 121 116 125 144 143 144 142 134 132 130 128 128 124 123 120 117 115 113 112 116 120 124 126 129 130 60 337
323 250 213 185 199 193 196 193 216 224 231 203 185 175 158 161 156 141 134 144 150 137 130 128 129 127 124 124 122 119 119 117 113 110 108 106 104 105 108 98 86 48 1 347
230 260 196 190 179 221 194 202 208 209 227 249 168 81 170 135 136 137 142 152 138 137 136 131 128 126 123 121 121 118 115 111 106 104 102 99 98 94 89 79 45 12 348 342
221 220 196 195 187 266 244 198 207 221 237 220 173 132 91 112 127 140 137 131 132 127 125 124 123 122 120 118 114 110 108 105 103 101 99 97 92 85 69 37 6 359 351 348
243 260 202 187 191 182 214 199 200 206 238 214 188 132 120 122 130 130 132 133 131 128 127 125 122 119 117 114 111 108 104 101 100 98 95 88 78 60 31 16 2 349 351 354
128 232 186 92 222 195 198 201 194 216 213 217 139 147 145 135 135 135 136 135 133 130 126 122 119 116 114 110 106 102 97 96 95 92 84 73 58 43 23 8 1 3 5 360
204 245 145 200 256 233 197 211 186 191 209 75 161 134 140 130 136 139 141 138 131 128 123 120 116 113 109 105 100 95 90 85 85 80 69 57 52 27 14 17 14 14 10 360
309 186 112 195 211 182 196 196 192 121 224 147 169 133 133 133 137 144 142 137 129 124 122 118 115 110 103 97 92 86 82 79 75 70 58 47 40 17 13 18 24 6 23 358
319 143 155 112 105 169 196 141 212 140 25 124 118 130 130 129 137 142 135 128 125 123 120 115 110 103 94 90 85 80 75 74 71 62 49 37 24 13 14 21 22 33 25 4
211 203 124 139 125 124 61 133 166 44 95 120 121 126 124 125 115 103 116 122 122 118 114 111 107 100 91 82 76 75 72 70 63 49 34 26 18 19 24 36 22 4 39 6
39 156 105 114 126 102 345 350 9 120 100 126 129 133 132 133 114 119 120 121 118 114 110 106 99 92 81 69 70 73 67 60 47 35 27 35 32 28 43 37 17 356 36 9
1 356 162 112 81 98 346 322 292 80 116 139 139 140 150 134 129 132 129 122 115 109 108 104 95 82 73 68 66 63 53 41 28 25 31 26 26 49 12 7 344 353 18 14
5 323 28 19 99 76 344 358 25 257 131 131 133 141 112 119 128 130 126 120 113 110 98 87 85 80 73 69 65 58 43 26 23 26 27 20 20 19 336 358 339 16 25 360
37 2 30 32 63 345 342 1 93 113 118 133 127 122 124 126 127 125 122 120 113 101 96 88 80 77 67 61 63 55 32 19 22 28 25 5 35 28 13 355 27 19 9 15
1 13 75 178 18 18 25 47 74 88 97 111 117 122 124 123 124 121 120 112 104 95 90 91 90 82 73 62 51 44 28 23 25 23 16 3 20 92 93 114 68 3 3 16
357 308 45 77 101 61 33 51 71 80 91 100 105 112 119 121 118 115 111 107 105 103 101 99 92 81 71 60 49 40 30 33 38 26 19 14 17 173 60 301 213 60 338 349
347 330 333 69 48 93 59 78 89 95 97 102 113 106 108 112 111 111 107 107 107 106 103 91 87 83 75 62 45 40 31 35 49 32 27 20 39 19 176 97 334 284 323 324